Location: Gu�tanj
(46.5431°N, 14.9692°E)
Time: 15:18:23
(UTC+00:00)

CZ-2C R/B - Pass Details

Date: 03 March 2021
Orbit: 703 x 908 km, 98.1° (Epoch: 14 April)

Event Time Altitude Azimuth Distance (km) Brightness Sun altitude
Rises 17:20:07 0° 172° (S) 3,510 6.4 -6.1°
Reaches altitude 10° 17:22:35 10° 175° (S) 2,560 5.7 -6.6°
Maximum altitude 17:28:17 68° 258° (WSW) 938 3.7 -7.5°
Drops below altitude 10° 17:33:48 10° 342° (NNW) 2,473 5.9 -8.5°
Sets 17:36:08 0° 345° (NNW) 3,381 6.5 -8.9°
